Terug naar catalogus

SPNEX

ActiefWetenschapSSO
NORAD 67000·PAYLOAD·🇨🇳 China
Deze satellietnaam is nog niet bevestigd door officiële bronnen.

Gelanceerd Dec 10, 2025 vanaf Jiuquan Satellite Launch Center

Loading…

Volgende Passages (komende 24 uur)

TLE

VersSource: Space-Track

Epoch: Sep 14, 2026, 10:38 UTC

1 67000U 25292H   26257.44340164  .00004322  00000-0  28087-3 0  9990
2 67000  97.6310 332.9795 0015575  63.4295 296.8527 15.08447976 41781

Volg SPNEX in realtime met AllMySat

Download on the App Store